sat.trackr.live / text

‹ back to catalog

SGDC

NORAD 42692 · 2017-023B

PAYLOAD ACTIVE UNKNOWN

§ Identity

Operator
Country
BRAZ
Launch date
2017-05-04
Launch site
FRGUI
Launch vehicle
Mass (kg)
RCS (m²)

Purposes: comms

External: N2YO · Heavens-Above · Gunter

§ Orbital elements

Epoch: 2026-05-24T12:50:59.665920Z

Period
1,436.08 min
Inclination
0.0412°
Eccentricity
0.0002823
Mean motion
1.00273015 rev/d
Perigee alt
35,774.3 km
Apogee alt
35,798.2 km
Semi-major
42,164.4 km
B*
0.0000e+0
RAAN
93.0995°
Arg perigee
338.4864°
Mean anomaly
288.4407°
Rev number
3,317

§ Raw data

SGDC1 42692U 17023B   26144.53541280 -.00000254  00000+0  00000+0 0  99912 42692   0.0412  93.0995 0002823 338.4864 288.4407  1.00273015 33174

JSON: /api/v1/satellites/42692 · /tle

For live sub-satellite position, see the globe view (requires WebGL).

§ Visibility from observer

Set your observer location to see the next 7 days of passes ≥ 10°. The values pass through the URL so the page stays shareable.

No JS? Fill the form by hand. The geolocation button needs JavaScript.